Flag for U.S.A. Weather past 2 weeks in Juneau, Alaska, U.S.A.

Now
55 °F

Light rain. Fog.


Feels Like: 55 °F
Forecast: 51 / 57 °F
Wind: 3 mph from Southwest

Location: Juneau International Airport

Current Time: Jul 31, 2015 at 1:27:03 PM

Latest Report: Jul 31, 2015 at 12:53 PM


Visibility: 5 mi

Pressure: 30.02 "Hg

Humidity: 93%

Dew point: 53 °F

Location of JuneauLocation

Historic Weather in Juneau — Graph

°F

Juneau temperature yesterday

Maximum temperature yesterday: 62 °F (at 2:53 PM)
Minimum temperature yesterday: 52 °F (at 1:53 AM)
Average temperature yesterday: 55 °F

Past Weeks' High & Low Weather Summary

 TemperatureHumidityPressure
High76 °F (Jul 21, 3:53 PM)100% (Jul 21, 2:53 AM)30.24 "Hg (Jul 21, 2:53 AM)
Low47 °F (Jul 21, 4:53 AM)40% (Jul 21, 3:53 PM)29.57 "Hg (Jul 23, 4:53 PM)
Average56 °F86%29.95 "Hg
* Reported Jul 16 11:53 AM — Jul 31 11:53 AM, Juneau, Weather by CustomWeather, © 2015

Note: Actual official high and low records may vary slightly from our data, if they occured in-between our weather recording intervals... More about our weather records

Advertising

Juneau weather history for previous 24 hours

 ConditionsComfort  
Time TempWeatherWind HumidityBarometerVisibility
11:53 AM
Fri, Jul 31
55 °FLight rain. Mostly cloudy.7 mph93%30.01 "Hg8 mi
10:53 AM57 °FLight rain. Cloudy.6 mph87%30.00 "Hg10 mi
9:53 AM56 °FMostly cloudy.5 mph87%29.99 "Hg10 mi
8:53 AM54 °FLight rain. Mostly cloudy.5 mph93%29.98 "Hg10 mi
7:53 AM53 °FMostly cloudy.No wind96%29.98 "Hg10 mi
6:53 AM51 °FLight rain. Mostly cloudy.No wind96%29.98 "Hg10 mi
6:04 AM52 °FLight rain. Cloudy.No wind97%29.98 "Hg8 mi
5:53 AM52 °FLight rain. Fog.No wind97%29.98 "Hg2 mi
4:53 AM51 °FLight rain. Fog.6 mph100%29.98 "Hg5 mi
3:53 AM51 °FLight rain. Mostly cloudy.No wind96%29.98 "Hg10 mi
2:53 AM52 °FLight rain. Mostly cloudy.No wind93%29.98 "Hg8 mi
1:53 AM51 °FLight rain. Mostly cloudy.No wind96%29.98 "Hg10 mi
12:53 AM51 °FLight rain. Mostly cloudy.No wind96%29.98 "Hg10 mi
11:53 PM
Thu, Jul 30
52 °FLight rain. Mostly cloudy.No wind97%29.99 "Hg10 mi
10:53 PM53 °FLight rain. Overcast.3 mph96%30.01 "Hg10 mi
9:53 PM54 °FLight rain. Mostly cloudy.3 mph93%30.02 "Hg10 mi
8:53 PM55 °FLight rain. Mostly cloudy.5 mph93%30.02 "Hg10 mi
7:53 PM56 °FLight rain. Mostly cloudy.10 mph87%30.03 "Hg10 mi
6:53 PM57 °FLight rain. Mostly cloudy.9 mph83%30.04 "Hg10 mi
5:53 PM57 °FLight rain. Mostly cloudy.9 mph83%30.05 "Hg10 mi
4:53 PM57 °FLight rain. Mostly cloudy.7 mph87%30.06 "Hg10 mi
3:53 PM58 °FMostly cloudy.9 mph84%30.08 "Hg10 mi
2:53 PM62 °FMostly cloudy.7 mph73%30.09 "Hg10 mi
1:53 PM59 °FMostly cloudy.8 mph81%30.11 "Hg10 mi
Weather by CustomWeather, © 2015

See weather overviewHow to use our weather pages